This is the latest recevied weather packets stored in our database for station/object KC3WWU. If no packets are shown the sender has not sent any weather packets the latest 10 day(s).
| Time | Temp. | Humidity | Pressure | Rain* | Wind** | Luminosity | Snow |
|---|---|---|---|---|---|---|---|
| 1778093204 | 10° C | 99% | 1006.9 hPa | 0 mm | - | 60 W/m² | - |
| 1778092901 | 10° C | 99% | 1007 hPa | 0 mm | - | 78 W/m² | - |
| 1778092598 | 10° C | 99% | 1007 hPa | 0 mm | - | 101 W/m² | - |
| 1778092293 | 10° C | 99% | 1006.9 hPa | 0 mm | - | 81 W/m² | - |
| 1778091992 | 10° C | 99% | 1007 hPa | 0 mm | - | 67 W/m² | - |
| 1778091688 | 10° C | 99% | 1006.9 hPa | 0 mm | - | 55 W/m² | - |
| 1778091386 | 10° C | 99% | 1006.8 hPa | 0 mm | - | 56 W/m² | - |
| 1778091083 | 10.56° C | 99% | 1006.6 hPa | 0 mm | - | 53 W/m² | - |
| 1778090780 | 10.56° C | 99% | 1006.8 hPa | 0 mm | - | 69 W/m² | - |
| 1778090476 | 11.11° C | 99% | 1006.9 hPa | 0 mm | - | 84 W/m² | - |
| 1778090172 | 11.11° C | 99% | 1006.8 hPa | 0 mm | - | 79 W/m² | - |
| 1778089868 | 11.67° C | 99% | 1006.4 hPa | 0 mm | - | 64 W/m² | - |
| 1778089568 | 11.67° C | 99% | 1006.1 hPa | 0 mm | - | 98 W/m² | - |
| 1778089263 | 11.67° C | 99% | 1006.2 hPa | 0 mm | - | 142 W/m² | - |
| 1778088961 | 12.22° C | 99% | 1006.4 hPa | 0 mm | - | 142 W/m² | - |
| 1778088658 | 12.22° C | 99% | 1006.2 hPa | 0 mm | - | 187 W/m² | - |
| 1778088355 | 12.22° C | 99% | 1006 hPa | 0 mm | - | 243 W/m² | - |
| 1778088051 | 12.22° C | 99% | 1005.9 hPa | 0 mm | - | 214 W/m² | - |
| 1778087749 | 12.22° C | 99% | 1006.1 hPa | 0 mm | - | 285 W/m² | - |
| 1778087447 | 11.67° C | 99% | 1006 hPa | 0 mm | - | 193 W/m² | - |
| 1778087143 | 12.22° C | 99% | 1005.9 hPa | 0 mm | - | 133 W/m² | - |
| 1778086835 | 11.67° C | 99% | 1005.9 hPa | 0 mm | - | 157 W/m² | - |
| 1778086534 | 11.67° C | 99% | 1006.1 hPa | 1.78 mm | - | 140 W/m² | - |
| 1778086229 | 11.67° C | 99% | 1005.9 hPa | 1.78 mm | - | 147 W/m² | - |
| 1778085926 | 11.67° C | 99% | 1006.1 hPa | 0 mm | - | 93 W/m² | - |
* Rain latest hour (hover to see other rain measurements)
** Current wind speed in m/s (hover to see current wind gust speed)